Language: 


Des rapports , des résumés tant et plus, au choix de chacun....


Données Historiques de Météogheer
Journalier Rapport pour Décembre 13, 2017 Unitée:  Impériale    Métrique   Les deux
Suivant Jour »
Journalier Hebdomadaire Mensuel Annuel Sur mesure
  Max: Min: Moyenne:
Température: 47.8 °F 32 °F 42.6 °F
Point de rosée: 48.2 °F 35.6 °F 42.6 °F
Humidité: 98% 0% 96%
Vent: 30mph 0mph 8.1mph
Rafales: 686.8mph - -
Vent- - SW
Pression: 29.9 in 0 in -
Pluie: 0 in    
Historical Graphs
 
 
Données tabulaires pour Décembre 13, 2017
Heure Température Point de rosée Pression Vent Vent Rafales Humidité Pluie Taux (Horaire) Conditions
00:00 35.6 °F 35.6 °F 29.9 in South 7.2 mph 10.1 mph 98% 0 in
00:05 35.6 °F 35.6 °F 29.9 in South 8.7 mph 9.6 mph 98% 0 in
00:10 35.8 °F 35.6 °F 29.9 in South 4 mph 9.4 mph 98% 0 in
00:15 35.8 °F 35.6 °F 29.9 in SSW 6 mph 8.7 mph 98% 0 in
00:20 35.8 °F 35.6 °F 29.9 in SSW 6.5 mph 10.7 mph 98% 0 in
00:25 36 °F 35.6 °F 29.9 in SSW 8.5 mph 10.7 mph 98% 0 in
00:30 36.1 °F 37.4 °F 29.9 in SW 6.5 mph 12.3 mph 98% 0 in
00:35 36.1 °F 37.4 °F 29.9 in South 9.8 mph 12.3 mph 98% 0 in
00:40 36.1 °F 37.4 °F 29.9 in South 3.8 mph 10.5 mph 98% 0 in
00:55 36.3 °F 37.4 °F 29.8 in South 8.7 mph 13.9 mph 98% 0 in
01:16 36.5 °F 37.4 °F 29.8 in SSW 7.8 mph 12.8 mph 98% 0 in
01:21 36.5 °F 37.4 °F 29.8 in SSW 7.6 mph 12.3 mph 98% 0 in
01:26 36.5 °F 37.4 °F 29.8 in SSW 8.1 mph 12.3 mph 98% 0 in
01:36 36.3 °F 37.4 °F 29.8 in South 6.3 mph 13 mph 98% 0 in
01:46 36.3 °F 37.4 °F 29.8 in South 6.3 mph 15.2 mph 98% 0.01 in
01:56 36.3 °F 37.4 °F 29.8 in SSW 8.5 mph 11.2 mph 98% 0.01 in
02:11 36.5 °F 37.4 °F 29.8 in SSW 7.8 mph 14.8 mph 98% 0.01 in
02:26 36.7 °F 37.4 °F 29.8 in SSW 7.8 mph 14.5 mph 98% 0.01 in
02:37 36.7 °F 37.4 °F 29.8 in SSW 8.5 mph 10.7 mph 98% 0.01 in
02:42 36.7 °F 37.4 °F 29.8 in SSW 5.8 mph 13.2 mph 98% 0.01 in
02:47 36.9 °F 37.4 °F 29.8 in South 12.3 mph 13.2 mph 98% 0 in
02:52 36.9 °F 37.4 °F 29.8 in SW 6 mph 12.3 mph 98% 0 in
02:57 37 °F 37.4 °F 29.8 in South 8.7 mph 13.9 mph 98% 0 in
03:08 32 °F 37.4 °F 0 in South 7.8 mph 7.8 mph 0% 0 in
03:13 37.6 °F 37.4 °F 29.7 in SSW 11 mph 12.5 mph 98% 0 in
03:18 37.6 °F 37.4 °F 29.7 in South 10.1 mph 14.8 mph 98% 0 in
03:23 37.6 °F 37.4 °F 29.7 in South 6 mph 14.8 mph 98% 0 in
03:28 37.8 °F 37.4 °F 29.7 in SSW 10.1 mph 14.3 mph 98% 0 in
03:38 37.9 °F 37.4 °F 29.7 in South 10.1 mph 13 mph 98% 0 in
03:44 38.1 °F 37.4 °F 29.7 in South 11.4 mph 12.5 mph 98% 0 in
03:54 38.5 °F 39.2 °F 29.7 in SSW 9.8 mph 12.5 mph 98% 0 in
04:14 38.7 °F 39.2 °F 29.7 in SSW 8.1 mph 12.1 mph 98% 0 in
04:19 38.7 °F 39.2 °F 29.7 in South 7.8 mph 12.5 mph 98% 0 in
04:25 38.7 °F 39.2 °F 29.7 in South 10.1 mph 15.4 mph 98% 0 in
04:26 38.7 °F 39.2 °F 29.7 in South 7.4 mph 15.4 mph 98% 0 in
04:37 38.7 °F 39.2 °F 29.7 in SSW 9.6 mph 13.2 mph 98% 0.01 in
04:42 38.7 °F 39.2 °F 29.7 in South 5.6 mph 13.2 mph 98% 0.01 in
04:47 38.7 °F 39.2 °F 29.7 in South 10.7 mph 12.5 mph 98% 0.01 in
04:52 38.8 °F 39.2 °F 29.7 in SSE 13 mph 15.2 mph 98% 0.01 in
04:57 38.8 °F 39.2 °F 29.7 in SSW 8.1 mph 15.7 mph 98% 0.01 in
05:02 38.8 °F 39.2 °F 29.7 in South 8.7 mph 15.7 mph 98% 0.01 in
05:07 39 °F 39.2 °F 29.7 in South 10.1 mph 17.4 mph 98% 0.01 in
05:12 39.2 °F 39.2 °F 29.7 in SSW 14.1 mph 17.4 mph 98% 0.01 in
05:17 39.2 °F 39.2 °F 29.7 in South 13 mph 14.1 mph 98% 0.01 in
05:22 39.2 °F 39.2 °F 29.7 in South 8.5 mph 15.2 mph 98% 0.01 in
05:27 39.4 °F 39.2 °F 29.7 in South 10.5 mph 16.8 mph 98% 0.02 in
05:37 39.4 °F 39.2 °F 29.7 in SSW 11.9 mph 14.8 mph 98% 0.01 in
05:42 39.6 °F 39.2 °F 29.6 in SSW 8.1 mph 15.2 mph 98% 0.01 in
05:47 39.7 °F 39.2 °F 29.6 in South 15.4 mph 17.4 mph 98% 0.01 in
05:57 39.7 °F 39.2 °F 29.6 in SSW 10.1 mph 20.4 mph 98% 0.01 in
06:03 39.9 °F 39.2 °F 29.6 in SSW 10.1 mph 20.4 mph 98% 0.01 in
06:08 39.9 °F 39.2 °F 29.6 in WSW 10.3 mph 17 mph 98% 0.01 in
06:13 40.1 °F 41 °F 29.6 in SSW 8.1 mph 17.9 mph 98% 0.01 in
06:18 40.3 °F 41 °F 29.6 in SSW 12.5 mph 17.9 mph 98% 0.02 in
06:23 40.3 °F 41 °F 29.6 in SSW 10.3 mph 17.7 mph 98% 0.02 in
06:33 40.1 °F 41 °F 29.6 in South 8.1 mph 20.6 mph 98% 0.01 in
06:43 40.1 °F 41 °F 29.6 in South 10.7 mph 17.7 mph 98% 0.01 in
06:48 40.1 °F 41 °F 29.6 in WSW 7.4 mph 17.7 mph 98% 0.01 in
06:53 40.1 °F 41 °F 29.6 in SSW 13 mph 17 mph 98% 0.01 in
07:08 40.1 °F 41 °F 29.6 in SW 7.6 mph 13.2 mph 98% 0.02 in
07:18 39.9 °F 39.2 °F 29.6 in SSW 10.1 mph 13.6 mph 98% 0.01 in
07:28 39.9 °F 39.2 °F 29.6 in SSW 7.2 mph 17.7 mph 98% 0.01 in
07:30 39.9 °F 39.2 °F 29.6 in South 8.9 mph 17.7 mph 98% 0.01 in
07:35 40.1 °F 41 °F 29.6 in SSW 8.1 mph 17 mph 98% 0.01 in
07:40 40.1 °F 41 °F 29.6 in SSW 12.3 mph 17 mph 98% 0.01 in
07:45 40.1 °F 41 °F 29.6 in SSW 8.5 mph 17 mph 98% 0.01 in
07:50 40.3 °F 41 °F 29.6 in SSW 7.8 mph 19.2 mph 98% 0.01 in
07:55 40.3 °F 41 °F 29.6 in South 9.6 mph 19.2 mph 98% 0.01 in
08:00 40.5 °F 41 °F 29.6 in SSW 10.1 mph 20.6 mph 98% 0 in
08:05 40.5 °F 41 °F 29.6 in South 10.5 mph 20.6 mph 98% 0 in
08:10 40.5 °F 41 °F 29.6 in South 8.1 mph 17.2 mph 98% 0 in
08:15 40.5 °F 41 °F 29.6 in SSW 10.1 mph 15.9 mph 98% 0 in
08:21 40.5 °F 41 °F 29.6 in South 7.8 mph 15.2 mph 98% 0 in
08:26 40.6 °F 41 °F 29.6 in SSW 7.8 mph 15.2 mph 98% 0 in
08:31 40.6 °F 41 °F 29.6 in SSW 7.4 mph 14.5 mph 98% 0 in
08:36 40.6 °F 41 °F 29.6 in SSW 8.5 mph 17 mph 98% 0 in
08:46 41 °F 41 °F 29.6 in WSW 8.7 mph 19 mph 98% 0 in
08:51 41 °F 41 °F 29.6 in SW 7.6 mph 12.5 mph 98% 0 in
08:56 41 °F 41 °F 29.6 in South 9.8 mph 12.8 mph 98% 0 in
08:59 41 °F 41 °F 29.6 in South 10.1 mph 19.5 mph 98% 0 in
09:09 41.2 °F 41 °F 29.6 in WSW 8.5 mph 15.9 mph 98% 0 in
09:14 41.4 °F 41 °F 29.6 in SSW 7.4 mph 13.9 mph 98% 0 in
09:24 41.5 °F 42.8 °F 29.6 in SSW 10.3 mph 13 mph 98% 0 in
09:29 41.7 °F 42.8 °F 29.6 in WSW 8.1 mph 13.9 mph 98% 0 in
09:34 42.1 °F 42.8 °F 29.6 in SW 14.1 mph 14.1 mph 98% 0 in
09:44 42.4 °F 42.8 °F 29.5 in SSW 10.1 mph 15.2 mph 98% 0 in
09:49 42.8 °F 42.8 °F 29.5 in SW 10.7 mph 17.4 mph 98% 0 in
10:04 43.2 °F 42.8 °F 29.5 in SW 7.8 mph 15.4 mph 98% 0 in
10:15 43.5 °F 42.8 °F 29.5 in WSW 7.6 mph 13.2 mph 98% 0.01 in
10:20 43.5 °F 42.8 °F 29.5 in WSW 11 mph 15.2 mph 98% 0.01 in
10:25 43.5 °F 42.8 °F 29.5 in SW 12.3 mph 15.2 mph 98% 0.01 in
10:30 43.7 °F 44.6 °F 29.5 in SSW 8.7 mph 14.8 mph 98% 0.01 in
10:35 43.9 °F 44.6 °F 29.5 in SW 8.5 mph 14.3 mph 98% 0.01 in
10:40 44.1 °F 44.6 °F 29.5 in SSW 7.8 mph 14.3 mph 98% 0.01 in
10:50 44.2 °F 44.6 °F 29.5 in SW 5.4 mph 11.9 mph 98% 0.01 in
10:55 44.2 °F 44.6 °F 29.5 in SW 8.5 mph 10.1 mph 98% 0.01 in
11:00 44.2 °F 44.6 °F 29.5 in WSW 8.5 mph 10.1 mph 98% 0.01 in
11:05 44.2 °F 44.6 °F 29.5 in SSW 7.6 mph 9.4 mph 98% 0.01 in
11:10 44.2 °F 44.6 °F 29.5 in WSW 5.8 mph 9.4 mph 98% 0.01 in
11:15 44.2 °F 44.6 °F 29.5 in WSW 6.3 mph 8.5 mph 98% 0 in
11:20 44.2 °F 44.6 °F 29.5 in SSW 6.3 mph 7.6 mph 98% 0 in
11:25 44.4 °F 44.6 °F 29.5 in SW 5.8 mph 7.6 mph 98% 0 in
11:30 44.6 °F 44.6 °F 29.5 in SW 5.4 mph 7.2 mph 98% 0 in
11:35 44.6 °F 44.6 °F 29.5 in SSW 5.8 mph 7.4 mph 98% 0 in
11:40 44.6 °F 44.6 °F 29.5 in SW 7.8 mph 8.7 mph 98% 0 in
11:45 45.1 °F 44.6 °F 29.5 in SSW 5.6 mph 9.6 mph 98% 0 in
11:51 45.3 °F 44.6 °F 29.5 in SSW 7.4 mph 9.6 mph 98% 0 in
11:56 45.3 °F 44.6 °F 29.5 in WSW 5.8 mph 9.8 mph 98% 0 in
12:01 45.5 °F 46.4 °F 29.5 in SW 4 mph 9.8 mph 98% 0 in
12:06 45.7 °F 46.4 °F 29.5 in SW 6 mph 8.1 mph 98% 0 in
12:11 45.7 °F 46.4 °F 29.5 in SSW 3.8 mph 8.1 mph 98% 0 in
12:16 45.9 °F 46.4 °F 29.5 in SSW 5.6 mph 8.5 mph 98% 0 in
12:21 45.9 °F 46.4 °F 29.5 in SW 6 mph 8.5 mph 98% 0 in
12:26 46 °F 46.4 °F 29.5 in SW 5.4 mph 8.1 mph 98% 0 in
12:31 46 °F 46.4 °F 29.5 in SW 4.7 mph 8.1 mph 98% 0 in
12:36 46 °F 46.4 °F 29.5 in SSW 5.8 mph 8.5 mph 98% 0 in
12:41 46.2 °F 46.4 °F 29.5 in WSW 5.6 mph 8.5 mph 98% 0 in
12:46 46.2 °F 46.4 °F 29.5 in SW 4.5 mph 8.5 mph 98% 0 in
12:56 46.2 °F 46.4 °F 29.5 in SSW 8.1 mph 10.3 mph 98% 0 in
12:57 46.2 °F 46.4 °F 29.5 in SW 7.6 mph 10.3 mph 98% 0 in
13:12 46.2 °F 46.4 °F 29.5 in SW 8.1 mph 10.1 mph 98% 0.01 in
13:17 46.2 °F 46.4 °F 29.5 in SW 8.9 mph 9.8 mph 98% 0.01 in
13:22 46.2 °F 46.4 °F 29.5 in SW 6.3 mph 9.8 mph 98% 0.01 in
13:27 46.4 °F 46.4 °F 29.5 in WSW 8.1 mph 10.1 mph 98% 0.01 in
13:32 46.4 °F 46.4 °F 29.5 in WSW 8.1 mph 10.5 mph 98% 0.01 in
13:37 46.4 °F 46.4 °F 29.5 in WSW 5.6 mph 10.5 mph 98% 0.02 in
13:42 46.4 °F 46.4 °F 29.5 in SW 6 mph 10.3 mph 98% 0.02 in
13:47 46.4 °F 46.4 °F 29.5 in SW 5.8 mph 10.3 mph 98% 0.02 in
13:52 46.2 °F 46.4 °F 29.5 in SSW 5.6 mph 8.1 mph 98% 0.02 in
13:57 46.2 °F 46.4 °F 29.5 in SSW 5.6 mph 7.4 mph 98% 0.02 in
14:02 46.2 °F 46.4 °F 29.5 in SW 6.3 mph 8.1 mph 98% 0.02 in
14:07 46 °F 46.4 °F 29.5 in SW 6 mph 8.1 mph 98% 0.01 in
14:12 46 °F 46.4 °F 29.5 in SW 6 mph 7.4 mph 98% 0.02 in
14:17 46 °F 46.4 °F 29.5 in SSW 4.7 mph 8.1 mph 98% 0.02 in
14:22 46 °F 46.4 °F 29.5 in SW 3.1 mph 8.1 mph 98% 0.02 in
14:28 46 °F 46.4 °F 29.4 in SW 5.6 mph 7.4 mph 98% 0.02 in
14:43 46 °F 46.4 °F 29.4 in SW 4.3 mph 9.8 mph 98% 0.01 in
14:48 46 °F 46.4 °F 29.4 in Calm   9.8 mph 98% 0.01 in
14:53 46.2 °F 46.4 °F 29.4 in SSW 7.4 mph 8.7 mph 98% 0.01 in
14:58 46.2 °F 46.4 °F 29.4 in WSW 8.1 mph 8.7 mph 98% 0.01 in
15:09 46.2 °F 46.4 °F 29.4 in South 4.9 mph 10.3 mph 98% 0.02 in
15:14 46.4 °F 46.4 °F 29.4 in SSW 6.3 mph 10.3 mph 98% 0.01 in
15:24 46.4 °F 46.4 °F 29.4 in SW 5.4 mph 8.7 mph 98% 0.01 in
15:39 46.4 °F 46.4 °F 29.4 in SSW 6.9 mph 9.4 mph 98% 0.01 in
15:44 46.4 °F 46.4 °F 29.4 in SSW 6.7 mph 8.7 mph 98% 0.01 in
15:49 46.4 °F 46.4 °F 29.4 in SSW 4.3 mph 8.7 mph 98% 0.01 in
15:59 46.4 °F 46.4 °F 29.4 in WSW 6.5 mph 8.7 mph 98% 0.03 in
16:09 46.6 °F 46.4 °F 29.4 in SSW 6.5 mph 10.1 mph 98% 0.01 in
16:14 46.6 °F 46.4 °F 29.4 in SSW 6.7 mph 10.1 mph 98% 0.01 in
16:19 46.6 °F 46.4 °F 29.4 in SW 6.3 mph 11.2 mph 98% 0.01 in
16:24 46.6 °F 46.4 °F 29.4 in WSW 6.3 mph 11.2 mph 98% 0.03 in
16:29 46.6 °F 46.4 °F 29.4 in SSW 7.8 mph 12.1 mph 98% 0.04 in
16:34 46.6 °F 46.4 °F 29.4 in SSW 6 mph 12.1 mph 98% 0.05 in
16:39 46.6 °F 46.4 °F 29.4 in South 8.5 mph 10.1 mph 98% 0.06 in
16:44 46.6 °F 46.4 °F 29.4 in SSW 4.9 mph 10.3 mph 98% 0.07 in
16:54 46.6 °F 46.4 °F 29.4 in SSW 5.6 mph 10.5 mph 98% 0.09 in
17:20 46.8 °F 46.4 °F 29.3 in SW 4.9 mph 12.1 mph 98% 0.1 in
17:25 46.9 °F 48.2 °F 29.3 in WSW 10.1 mph 10.1 mph 98% 0.1 in
17:30 46.9 °F 48.2 °F 29.3 in South 8.1 mph 10.1 mph 98% 0.1 in
17:35 46.9 °F 48.2 °F 29.3 in South 8.1 mph 10.1 mph 98% 0.09 in
17:40 47.1 °F 48.2 °F 29.3 in SSW 10.7 mph 15.2 mph 98% 0.07 in
17:45 47.1 °F 48.2 °F 29.3 in WSW 7.8 mph 15.2 mph 98% 0.09 in
17:50 47.3 °F 48.2 °F 29.3 in WSW 9.2 mph 15.4 mph 98% 0.07 in
17:55 47.3 °F 48.2 °F 29.3 in SW 7.8 mph 15.4 mph 98% 0.11 in
18:05 47.1 °F 48.2 °F 29.3 in WSW 10.7 mph 15.2 mph 98% 0.14 in
18:10 47.1 °F 48.2 °F 29.3 in SSW 10.5 mph 16.8 mph 98% 0.17 in
18:15 47.1 °F 48.2 °F 29.2 in SSW 14.1 mph 16.8 mph 98% 0.18 in
18:20 47.1 °F 48.2 °F 29.2 in SSW 8.5 mph 16.6 mph 98% 0.17 in
18:25 47.1 °F 48.2 °F 29.2 in WSW 9.6 mph 16.6 mph 98% 0.17 in
18:30 47.1 °F 48.2 °F 29.3 in SW 8.9 mph 16.6 mph 98% 0.17 in
18:35 47.1 °F 48.2 °F 29.3 in SW 7.6 mph 13.9 mph 98% 0.17 in
18:40 47.1 °F 48.2 °F 29.3 in WSW 10.5 mph 13.2 mph 98% 0.23 in
18:45 47.1 °F 48.2 °F 29.2 in WSW 8.1 mph 12.5 mph 98% 0.21 in
18:50 47.1 °F 48.2 °F 29.2 in WSW 10.1 mph 12.5 mph 98% 0.22 in
18:55 47.3 °F 48.2 °F 29.2 in SW 9.8 mph 12.1 mph 98% 0.18 in
19:00 47.3 °F 48.2 °F 29.2 in WSW 10.5 mph 12.1 mph 98% 0.17 in
19:10 47.5 °F 48.2 °F 29.2 in SW 9.8 mph 13.2 mph 98% 0.12 in
19:15 47.5 °F 48.2 °F 29.2 in WSW 13.2 mph 14.8 mph 98% 0.1 in
19:20 47.5 °F 48.2 °F 29.2 in WSW 12.5 mph 686.8 mph 98% 0.1 in
19:30 47.8 °F 48.2 °F 29.2 in WSW 30 mph 30 mph 98% 0.09 in
19:35 47.3 °F 48.2 °F 29.2 in West 11 mph 30 mph 98% 0.16 in
19:37 47.3 °F 48.2 °F 29.2 in West 3.6 mph 30 mph 98% 0.16 in
19:42 47.1 °F 48.2 °F 29.2 in West 9.8 mph 23.7 mph 98% 0.1 in
19:47 46.8 °F 46.4 °F 29.2 in West 8.7 mph 17.2 mph 98% 0.09 in
19:52 46.8 °F 46.4 °F 29.2 in West 9.6 mph 17.2 mph 98% 0.09 in
20:12 45.7 °F 44.6 °F 29.2 in West 10.5 mph 18.6 mph 96% 0.09 in
20:28 45.1 °F 44.6 °F 29.3 in West 12.8 mph 20.4 mph 95% 0.09 in
20:33 45 °F 44.6 °F 29.3 in West 10.7 mph 20.4 mph 95% 0.09 in
20:43 44.6 °F 42.8 °F 29.3 in West 20.8 mph 20.8 mph 95% 8.3 in
20:48 44.8 °F 42.8 °F 29.3 in NW 8.5 mph 20.8 mph 95% 0.01 in
20:54 44.6 °F 42.8 °F 29.3 in WSW 11 mph 20.8 mph 95% 0.01 in
21:04 44.1 °F 42.8 °F 29.3 in WNW 13 mph 14.1 mph 91% 0 in
21:09 43.7 °F 42.8 °F 29.3 in West 11 mph 14.1 mph 91% 0 in
21:19 43.2 °F 41 °F 29.3 in WSW 7.8 mph 14.8 mph 90% 0 in
21:24 43 °F 41 °F 29.3 in WNW 5.4 mph 16.6 mph 90% 0 in
21:34 42.6 °F 41 °F 29.3 in West 9.8 mph 12.5 mph 89% 0 in
21:39 42.3 °F 39.2 °F 29.3 in West 8.1 mph 13.2 mph 88% 0 in
21:50 42.3 °F 39.2 °F 29.3 in West 5.8 mph 16.3 mph 88% 0 in
21:55 42.3 °F 39.2 °F 29.3 in West 10.3 mph 16.3 mph 88% 0 in
22:00 42.3 °F 39.2 °F 29.3 in SW 8.5 mph 13 mph 88% 0 in
22:05 42.3 °F 39.2 °F 29.3 in WSW 5.4 mph 10.3 mph 88% 0 in
22:10 42.3 °F 39.2 °F 29.3 in WSW 7.6 mph 8.5 mph 88% 0 in
22:15 42.3 °F 39.2 °F 29.3 in WSW 7.2 mph 8.5 mph 88% 0 in
22:20 42.3 °F 39.2 °F 29.3 in WSW 4.3 mph 8.5 mph 88% 0 in
22:25 42.3 °F 39.2 °F 29.3 in WSW 4 mph 8.1 mph 88% 0 in
22:30 42.3 °F 39.2 °F 29.3 in WSW 6.3 mph 8.1 mph 88% 0 in
22:35 42.3 °F 39.2 °F 29.3 in WSW 6 mph 7.4 mph 88% 0 in
22:45 42.3 °F 39.2 °F 29.3 in Calm   8.5 mph 88% 0 in
22:50 42.3 °F 39.2 °F 29.3 in WSW 3.6 mph 8.5 mph 88% 0 in
23:00 42.3 °F 39.2 °F 29.3 in WSW 5.4 mph 6.5 mph 88% 0 in
23:05 39.7 °F 37.4 °F 29.3 in WSW 8.1 mph 8.1 mph 92% 0 in
23:20 39.9 °F 37.4 °F 29.3 in WSW 6.3 mph 8.9 mph 93% 0 in
23:25 32 °F 39.2 °F 29.2 in WSW 5.4 mph 7.4 mph 0% 0 in
23:36 40.3 °F 39.2 °F 29.2 in SW 4 mph 6.3 mph 94% 0 in
23:46 40.3 °F 39.2 °F 29.2 in Calm   5.6 mph 94% 0 in
23:56 40.8 °F 39.2 °F 29.2 in SSW 6 mph 8.5 mph 94% 0 in
Données Historique de Météo Turbie

Mise a jour : 26/05/2018 05:56:13
Généré par Cumulus 1.9.4 (1099)